Theta_e
307 303 305 307 319 320 326 329 329 325 333 332 325 334 342 349 350 350 348 348 351 358 357 355 356 357 357 357 356 355 354 355
304 303 314 314 320 325 325 329 330 330 321 331 334 341 346 349 352 350 349 349 356 358 356 354 355 355 357 357 356 356 356 354
300 304 314 322 328 326 324 328 329 327 320 322 331 345 347 350 351 348 348 349 350 357 356 354 355 355 356 356 357 356 355 356
298 307 320 324 329 328 327 330 331 326 322 323 333 337 344 349 348 350 348 349 349 355 356 355 354 355 356 356 356 356 357 356
302 305 316 321 327 325 325 324 331 334 322 326 330 335 344 347 347 349 350 348 347 347 350 354 356 355 355 356 356 356 356 356
303 305 313 323 324 326 324 323 332 335 325 323 330 337 346 347 347 346 348 348 345 344 343 345 347 355 355 355 355 355 355 355
301 310 318 326 324 331 332 323 325 329 333 333 335 333 337 340 343 344 346 348 347 346 344 344 345 350 355 354 354 355 354 356
311 326 324 326 328 327 331 327 324 325 335 335 332 330 328 330 337 337 337 342 341 342 345 341 346 346 346 347 346 346 347 346
316 327 330 327 328 330 327 323 326 325 325 328 328 329 328 327 328 328 329 328 331 336 342 341 343 342 342 342 343 344 343 343
323 327 326 325 327 325 326 326 328 326 325 323 321 321 322 322 322 323 324 324 325 327 331 337 344 341 338 340 342 341 341 344
324 324 322 323 319 318 318 322 323 322 321 319 318 318 319 320 321 321 320 321 322 323 324 328 335 338 346 342 337 337 343 346
317 318 319 316 316 316 316 318 316 315 314 315 315 316 316 316 316 317 318 317 319 320 321 323 325 327 337 343 343 343 337 339
315 315 314 317 310 310 314 315 312 312 311 312 313 314 313 314 314 315 315 316 316 317 317 319 320 324 332 339 343 340 338 331
311 313 315 312 303 311 314 312 310 311 311 310 310 311 312 314 313 313 313 314 315 315 315 316 318 321 326 331 331 326 324 325
304 311 311 308 304 312 314 311 308 308 308 308 308 309 310 312 312 313 313 313 313 314 314 315 315 318 319 323 323 321 321 319
297 306 307 305 304 310 311 309 308 307 306 306 306 306 309 311 312 313 313 313 313 313 313 313 313 314 316 316 317 317 319 317
299 307 305 303 304 307 308 307 305 305 304 304 305 307 308 310 311 312 313 312 311 311 311 311 313 311 313 315 316 316 317 316
303 306 304 303 302 304 306 305 305 305 304 303 303 304 306 308 309 310 310 310 310 310 310 310 311 311 314 314 315 314 312 313
300 304 306 302 298 301 305 305 305 304 304 304 302 302 303 305 306 308 308 309 309 308 309 309 309 310 309 308 309 309 308 311
303 298 292 301 289 297 301 300 302 300 300 300 301 303 303 303 303 305 306 309 308 308 307 309 309 307 306 305 303 306 307 308
Wind_Speed
4 3 10 9 18 7 13 13 14 7 13 10 10 10 8 21 20 18 14 9 11 15 15 15 15 14 13 12 11 11 12 11
4 9 24 8 13 16 16 18 19 4 9 12 7 10 16 23 22 19 13 8 13 15 15 15 15 14 12 12 11 10 10 9
6 17 4 23 27 21 19 12 26 10 13 12 8 23 23 23 20 19 13 9 9 14 14 14 14 13 11 10 9 8 8 8
7 14 8 21 27 31 28 31 19 17 11 7 7 13 21 22 19 18 15 10 8 14 12 13 13 12 10 8 8 7 6 5
12 15 5 13 17 25 26 30 11 6 7 5 5 9 20 21 19 17 15 11 7 7 10 11 12 12 9 8 7 6 6 3
12 7 5 5 9 22 14 9 13 9 8 3 3 15 23 20 19 15 14 12 10 8 7 7 6 10 10 9 7 6 7 6
14 6 8 8 28 18 12 17 8 3 1 7 9 8 14 16 14 11 11 12 10 10 10 9 7 9 11 12 11 10 9 9
7 20 21 25 27 23 17 6 4 4 13 11 10 8 12 9 12 8 9 5 5 6 11 8 9 9 7 8 5 5 6 7
7 25 29 24 22 18 23 13 10 10 17 17 20 18 19 18 15 15 12 13 14 13 9 7 5 2 3 3 4 5 8 7
12 21 25 23 11 14 14 9 16 15 16 16 19 17 16 16 15 16 16 15 14 15 13 12 4 2 3 3 4 5 6 7
18 21 21 21 15 16 15 15 15 16 16 16 15 15 14 14 14 14 16 15 15 14 13 11 10 8 7 4 1 4 5 3
13 18 21 25 17 8 12 13 14 15 14 14 14 12 11 12 12 13 13 13 12 13 13 11 10 11 8 9 7 9 8 10
15 14 16 19 10 12 12 12 14 14 11 12 12 12 11 10 11 10 8 9 12 11 12 11 10 9 7 8 9 10 9 13
11 13 14 6 10 14 14 14 12 14 12 9 9 9 8 9 7 8 7 9 8 10 10 9 10 8 7 9 9 9 9 9
7 13 8 6 12 11 13 13 12 12 12 11 8 7 7 8 7 7 7 7 8 9 10 8 8 6 7 8 7 7 8 8
9 13 10 11 9 14 12 12 12 11 10 10 9 7 7 7 7 7 7 7 7 7 9 8 5 5 5 4 5 5 8 8
12 15 13 11 14 13 9 9 9 9 11 9 9 7 7 7 7 7 7 7 7 8 8 7 6 5 5 5 7 9 9 10
7 19 11 15 10 8 8 7 10 11 11 12 8 7 7 7 7 7 7 7 7 7 8 7 4 4 3 3 4 4 6 9
10 5 17 17 8 12 9 7 9 10 11 12 11 9 7 7 7 7 7 7 7 7 7 7 7 5 5 4 5 8 7 8
16 7 7 8 6 12 13 9 9 10 10 10 10 9 7 7 7 7 6 6 6 6 6 6 7 5 7 5 5 5 5 5
Wind_Direction
178 247 243 183 195 121 55 40 71 83 49 77 118 115 91 127 132 116 103 107 117 113 109 109 109 105 106 107 107 112 110 108
171 208 262 264 129 77 39 29 24 52 48 59 72 100 130 131 111 105 111 113 115 114 113 116 118 118 119 121 122 126 127 122
291 266 127 72 86 80 79 81 15 17 91 80 87 123 124 118 112 112 112 122 122 122 126 128 129 125 123 125 121 134 131 126
287 292 84 88 94 91 81 74 10 59 87 95 98 111 124 116 117 121 128 128 132 133 136 136 135 132 132 128 130 134 127 139
285 293 90 124 98 101 104 112 118 291 124 155 155 128 106 111 116 121 130 133 146 140 147 143 140 144 142 140 144 137 140 159
288 280 77 37 82 108 90 106 158 179 141 157 135 108 115 125 130 135 142 148 153 158 151 151 153 149 151 159 160 167 175 188
287 37 70 66 80 56 108 128 191 192 150 147 137 124 127 125 126 141 152 156 169 162 163 159 161 170 168 175 181 191 197 209
282 97 97 82 84 96 79 123 116 221 191 172 123 91 60 75 144 112 58 120 135 157 177 168 168 164 180 188 187 194 202 210
26 97 100 97 106 141 146 81 52 81 72 57 60 52 54 50 41 55 53 39 36 30 45 44 103 206 183 189 197 207 210 202
86 92 102 107 99 87 84 116 98 77 75 65 57 50 50 50 40 32 34 32 27 24 18 21 40 93 225 222 206 211 214 195
110 108 110 114 109 99 86 84 76 74 68 68 64 58 49 47 47 39 33 22 20 27 18 8 14 6 2 14 153 176 182 226
91 101 108 111 126 103 118 107 89 75 63 66 65 61 56 49 42 44 37 23 14 25 14 9 9 2 1 3 349 25 28 32
128 142 126 115 81 110 120 107 103 89 73 61 61 60 60 51 52 44 40 31 25 19 9 7 5 2 6 12 26 41 33 30
173 136 165 123 143 142 138 131 124 116 105 81 62 58 73 68 62 52 39 41 39 21 3 360 11 10 23 31 30 41 35 32
165 158 154 146 144 155 151 140 138 133 129 127 108 80 68 82 64 66 46 44 36 18 8 4 11 20 25 37 49 41 41 32
174 191 163 149 144 151 154 144 147 137 128 119 110 109 98 88 81 70 55 43 54 27 15 1 15 17 22 44 35 40 56 32
242 179 151 153 141 161 157 143 142 129 123 116 118 120 105 93 92 79 62 55 34 42 15 17 21 10 15 24 31 37 46 30
350 147 96 132 146 148 161 168 152 148 133 129 128 117 109 106 93 87 74 59 39 41 30 22 21 7 19 21 17 33 30 20
161 125 119 130 146 170 187 163 147 141 141 137 132 122 113 103 108 89 71 62 54 42 48 31 28 24 16 28 36 34 19 25
147 122 176 162 200 191 178 156 141 129 121 117 118 118 114 109 98 104 94 83 66 58 52 55 41 44 47 48 41 20 17 18